Regional Weather Roundup
Issued by NWS

Home | Current Version | Previous Version | Text Only | Print | Product List | Glossary Off
Versions: 1 2 3 4 5 6 7 8 9 10 11 12 13 14 15 16 17 18 19 20 21 22 23 24 25 26 27 28 29 30 31 32 33 34 35 36 37 38 39 40 41 42 43 44 45 46 47 48 49 50

370
ASUS43 KIND 232359
RWRIN

WEATHER ROUNDUP FOR INDIANA
NATIONAL WEATHER SERVICE INDIANAPOLIS IN
800 PM EDT THU MAR 23 2017

NOTE: "FAIR" INDICATES FEW OR NO CLOUDS BELOW 12,000 FEET WITH NO
SIGNIFICANT WEATHER AND/OR OBSTRUCTIONS TO VISIBILITY.

* - STATION DOES NOT REPORT WEATHER SUCH AS PRECIPITATION OR FOG.

+ - STATION NOT QUALITY CONTROLLED BY THE NATIONAL WEATHER SERVICE.
    USE DATA WITH CAUTION...ESPECIALLY DEWPOINT AND RELATIVE
    HUMIDITY OBSERVATIONS.

INZ001>003-010>013-019-020-240100-
NORTHWEST INDIANA

CITY           SKY/WX    TMP DP  RH WIND       PRES   REMARKS
GARY /AIRPORT/ CLOUDY    50  25  37 SE15      30.11F
KNOX *+        CLOUDY    46   3  17 SE13      30.14F
MONTICELLO +   CLOUDY    51  25  37 SE8       30.15F
6HR MIN TEMP:  43; 6HR MAX TEMP:  52;


$$

LMZ046-743>745-240100-
SOUTHERN LAKE MICHIGAN

STATION/POSITION TIME  TEMP    WIND        PRES    WAVE
                       AIR SEA DIR/SP/G            HT
                 (UTC) (F)     (DEG/KT/KT) (MB)    (FT)
BURNS HARBOR     2340   48     150/  8/ 17 1020.3F
MICHIGAN CITY    2330   47     130/ 17/ 19   N/A

$$

INZ004-005-014>016-021>024-240100-
NORTH CENTRAL INDIANA

CITY           SKY/WX    TMP DP  RH WIND       PRES   REMARKS
ELKHART        CLOUDY    45  23  42 SE12      30.17F
GOSHEN         CLOUDY    45  23  42 SE13      30.18F
6HR MIN TEMP:  38; 6HR MAX TEMP:  48;

SOUTH BEND     CLOUDY    44  24  45 SE14      30.16F
6HR MIN TEMP:  37; 6HR MAX TEMP:  46;


$$

INZ006>009-017-018-025>027-240100-
NORTHEAST INDIANA

CITY           SKY/WX    TMP DP  RH WIND       PRES   REMARKS
ANGOLA *+      CLOUDY    45  30  57 S7        30.21F
FORT WAYNE     CLOUDY    47  27  45 SE8       30.22F
6HR MIN TEMP:  41; 6HR MAX TEMP:  49;

KENDALLVILLE + CLOUDY    45  23  42 SE8       30.21F

$$

INZ028-029-035-036-043>045-051>053-240100-
WEST CENTRAL INDIANA

CITY           SKY/WX    TMP DP  RH WIND       PRES   REMARKS
CRAWFORDSVL +  CLOUDY    51  28  41 S10       30.17F
6HR MIN TEMP:  47; 6HR MAX TEMP:  52;

GREENCASTLE +  CLOUDY    52  28  40 S10       30.20F
LAFAYETTE      CLOUDY    51  27  39 S10       30.15F
6HR MIN TEMP:  48; 6HR MAX TEMP:  52; 6HR PCP: TRACE;

TERRE HAUTE    CLOUDY    50  29  44 SE10      30.18F
6HR MIN TEMP:  46; 6HR MAX TEMP:  53; 6HR PCP: TRACE;


$$

INZ030>032-037>040-046>048-054>057-064-065-240100-
CENTRAL INDIANA

CITY           SKY/WX    TMP DP  RH WIND       PRES   REMARKS
COLUMBUS       CLOUDY    55  28  35 S10       30.24S
INDIANAPOLIS   CLOUDY    55  24  30 S14       30.20F
6HR MIN TEMP:  50; 6HR MAX TEMP:  57;

-EAGLE CREEK   CLOUDY    55  24  30 S9        30.19F
6HR MIN TEMP:  49; 6HR MAX TEMP:  56; 6HR PCP: TRACE;

KOKOMO +       CLOUDY    49  34  56 SE8       30.19F
6HR MIN TEMP:  43; 6HR MAX TEMP:  52; 6HR PCP: TRACE;

SHELBYVILLE    CLOUDY    56  28  34 S7        30.22S
6HR MIN TEMP:  51; 6HR MAX TEMP:  59;


$$

INZ033-034-041-042-049-050-058-059-240100-
EAST CENTRAL INDIANA

CITY           SKY/WX    TMP DP  RH WIND       PRES   REMARKS
MUNCIE         CLOUDY    53  27  36 SE9       30.21F
6HR MIN TEMP:  44; 6HR MAX TEMP:  54;

RICHMOND +     PTCLDY    48  32  53 SE7       30.25F

$$

INZ060-061-067>069-081>083-085>088-240100-
SOUTHWEST INDIANA

CITY           SKY/WX    TMP DP  RH WIND       PRES   REMARKS
EVANSVILLE     CLEAR     52  40  63 E3        30.20S
6HR MIN TEMP:  43; 6HR MAX TEMP:  53; 6HR PCP:  0.05;

HUNTINGBURG *+ PTCLDY    54  37  52 SE8       30.21F
6HR MIN TEMP:  44; 6HR MAX TEMP:  56; 6HR PCP:  0.01;


$$

INZ062-063-066-070>080-084-089>092-240100-
SOUTH CENTRAL AND SOUTHEAST INDIANA

CITY           SKY/WX    TMP DP  RH WIND       PRES   REMARKS
BLOOMINGTON    CLOUDY    54  26  34 SE7       30.20F
6HR MIN TEMP:  50; 6HR MAX TEMP:  56; 6HR PCP: TRACE;

SEYMOUR +      CLOUDY    55  32  41 S5        30.23F

$$





USA.gov is the U.S. government's official web portal to all federal, state and local government web resources and services.